Location: Melita
(38.4566°N, 122.6369°W)
Time: 13:37:01
(UTC+00:00)

Cosmos 1437 - Pass Details

Date: 24 January 2020
Orbit: 377 x 382 km, 81.2° (Epoch: 16 February)

Event Time Altitude Azimuth Distance (km) Brightness Sun altitude
Rises 14:45:54 0° 350° (N) 2,252 6.2 -7.5°
Reaches altitude 10° 14:47:54 10° 350° (N) 1,395 5.1 -7.1°
Maximum altitude 14:50:55 85° 266° (W) 384 2.5 -6.5°
Drops below altitude 10° 14:53:55 10° 174° (S) 1,384 5.8 -6.0°
Sets 14:55:54 0° 173° (S) 2,231 6.8 -5.6°
